Hourly Data Report for August 27, 2020

SVARTEVAEG
NUNAVUT
Current Station Operator: ECCC - MSC

81°09'39.000" N
91°48'59.060" W
72.00 m
2403833
71872
NSG

Download Data

Hourly Data (August 2020)
Hourly Data Report for August 27, 2020
TIME Temp Definition
°C
Dew Point Definition
°C
Rel Hum Definition
%
Wind Dir Definition
10's deg

Wind Spd Definition
km/h
Visibility Definition
km
Stn Press Definition
kPa
Hmdx Definition


Wind Chill Definition


Weather Definition


00:00 -4.1 -4.7 96 26 14   100.38   -9 LegendNANA
01:00 -4.4 -5.0 95 29 19   100.39   -11 LegendNANA
02:00 -4.3 -4.7 97 27 24   100.40   -11 LegendNANA
03:00 -3.6 -4.3 95 28 21   100.40   -10 LegendNANA
04:00 -2.4 -3.5 92 29 18   100.42   -8 LegendNANA
05:00 -3.0 -4.0 93 28 26   100.43   -10 LegendNANA
06:00 -2.8 -3.6 94 27 35   100.43   -11 LegendNANA
07:00 -2.9 -3.7 94 26 38   100.45   -11 LegendNANA
08:00 -2.7 -3.5 95 26 39   100.47   -11 LegendNANA
09:00 -2.4 -3.3 94 26 39   100.49   -11 LegendNANA
10:00 -2.1 -3.2 92 26 18   100.57   -8 LegendNANA
11:00 -1.9 -3.0 92 25 25   100.57   -8 LegendNANA
12:00 -1.8 -2.9 92 25 33   100.57   -9 LegendNANA
13:00 -1.8 -2.9 92 25 32   100.60   -9 LegendNANA
14:00 -1.8 -2.9 92 25 31   100.64   -9 LegendNANA
15:00 -1.5 -2.9 90 26 32   100.67   -9 LegendNANA
16:00 -1.5 -2.6 92 25 26   100.69   -8 LegendNANA
17:00 -1.5 -2.7 92 26 19   100.73   -7 LegendNANA
18:00 -1.4 -2.4 92 27 24   100.75   -8 LegendNANA
19:00 -1.1 -2.4 91 26 23   100.79   -7 LegendNANA
20:00 -1.0 -2.2 91 25 25   100.81   -7 LegendNANA
21:00 -1.0 -2.1 92 25 20   100.83   -7 LegendNANA
22:00 -1.2 -2.3 92 25 18   100.87   -6 LegendNANA
23:00 -1.4 -2.3 94 26 18   100.89   -7 LegendNANA

Notes on Data Quality.

Legend

  • E = Estimated
  • M = Missing
  • NA = Not Available*
  • [empty] = Indicates an unobserved value
Date modified: